Regional Weather Roundup
Issued by NWS

Home | Current Version | Previous Version | Text Only | Print | Product List | Glossary Off
Versions: 1 2 3 4 5 6 7 8 9 10 11 12 13 14 15 16 17 18 19 20 21 22 23 24 25 26 27 28 29 30 31 32 33 34 35 36 37 38 39 40 41 42 43 44 45 46 47 48 49 50

154
ASUS43 KFSD 252002
RWRSD

WEATHER ROUNDUP FOR SOUTH DAKOTA
NATIONAL WEATHER SERVICE SIOUX FALLS SD
300 PM CDT THU MAY 25 2017

NOTE: "FAIR" INDICATES FEW OR NO CLOUDS BELOW 12,000 FEET WITH NO
SIGNIFICANT WEATHER AND/OR OBSTRUCTIONS TO VISIBILITY.


SDZ001>005-009-010-012>017-252100-
NORTHWEST AND NORTH CENTRAL SOUTH DAKOTA

CITY           SKY/WX    TMP DP  RH WIND       PRES   REMARKS
BUFFALO          N/A     66  37  34 W28G35    29.47R
FAITH            N/A     72  33  24 NW12      29.51R
MOBRIDGE       PTSUNNY   71  45  39 NW10      29.44R
$$

SDZ012>016-024>037-041>051-057-063-072>074-252100-
SOUTHWEST AND SOUTH CENTRAL SOUTH DAKOTA

CITY           SKY/WX    TMP DP  RH WIND       PRES   REMARKS
RAPID CTY ARPT LGT RAIN  61  36  39 N8G20     29.57R
PIERRE         CLOUDY    69  41  36 W8        29.49R HAZE
CUSTER         CLOUDY    56  33  42 W8G23     29.64R
ELLSWORTH AFB  CLOUDY    64  31  29 N7        29.56R
PHILIP         CLOUDY    74  30  19 MISG      29.51S
PINE RIDGE     CLOUDY    70  44  39 NW7       29.57R
WINNER         FAIR      71  52  50 MISG      29.51S
$$

SDZ004>011-016>023-039-040-252100-
NORTHEAST SOUTH DAKOTA

CITY           SKY/WX    TMP DP  RH WIND       PRES   REMARKS
ABERDEEN       CLOUDY    68  48  48 S17G24    29.44S
WATERTOWN      PTSUNNY   64  49  57 S17G25    29.51R
BROOKINGS      MOSUNNY   66  49  54 S16       29.52S
SISSETON         N/A     69  50  50 S17       29.49S
$$

SDZ017-020-022-023-036>040-048>070-252100-
SOUTHEAST SOUTH DAKOTA

CITY           SKY/WX    TMP DP  RH WIND       PRES   REMARKS
SIOUX FALLS    LGT RAIN  67  51  56 S20G25    29.53R
HURON          MOSUNNY   66  52  60 W13       29.48R
CHAMBERLAIN    CLOUDY    66  52  60 W5        29.51R
MITCHELL       CLOUDY    68  51  54 SW12      29.51R
YANKTON        CLOUDY    70  48  45 S13       29.53R
$$

ABBREVIATIONS USED IN REMARKS
   TC - TEMPERATURE IN CELSIUS
  WCI - WIND CHILL INDEX
   HX - HEAT INDEX
  VSB - VISIBILITY





USA.gov is the U.S. government's official web portal to all federal, state and local government web resources and services.